Find Starlink 3599

NORAD ID: 51814 Int'l Des: 2022-017 Owner: SPXS Country: US Constellation: starlink operational
LEOCIRCULAR

現在のビュー

3D地球を読み込み中...

About Starlink 3599

Starlink 3599 (NORAD 51814) is a starlink constellation satellite (v1.5) launched Feb 25, 2022 by SPXS of US. It operates in LEO, CIRCULAR orbit with a mass of 297.00 kg.

Starlink 3599について

説明を読み込み中...

次回通過

Passes for default location (London). Set your location on the main map for personalized predictions.

高度履歴

Loading altitude history...

軌道要素

1 51814U 22017AY 26194.22030009 -.00000095 00000-0 12130-4 0 9995
2 51814 53.1596 125.3406 0001669 85.7019 274.4163 15.08835294243037
Epoch: Jul 13, 2026 • Age: 24 hours

現在のステータス

高度 558.7 km
遠地点 / 近地点 N/A
速度 7.58 km/s
衛星直下点 -51.52°S, 47.39°E
打ち上げ日 Feb 25, 2022
運用期間 4.3 years
タイプ internet

技術仕様

分類 Payload
質量 297.00 kg
乾燥質量 275.00 kg
総質量 297.00 kg
長さ 0.20 m
直径 2.80 m
スパン 9.00 m
形状 Box + pan
製造者 SPXS
バスタイプ Starlink
フェーズステータス In Orbit
所有者/国 SPXS/US

Most Searched